User: anonymous   Login
Location: Unspecified
(0.0000°N, 0.0000°E)
Time: 20:36:23
(UTC+00:00)
Language:

Optus B3 - Orbit

View from above orbital plane
View from above orbital plane
View from above satellite
View from above satellite

Ground track
Ground track

The orbit data is extracted from the following two-line orbital elements,

1 23227U 94055A   17119.41201971 -.00000219 +00000-0 +00000-0 0  9996
2 23227 007.3216 050.6043 0006350 290.3148 200.6515 00.98698530082991
Epoch (UTC): 29 April 2017 09:53:18
Eccentricity: 0.0006350
inclination: 7.3216°
perigee height: 36206 km
apogee height: 36260 km
right ascension of ascending node: 50.6043°
argument of perigee: 290.3148°
revolutions per day: 0.98698530
mean anomaly at epoch: 200.6515°
orbit number at epoch: 8299

The dashed part of the orbit path shows where the satellite is in the earth's shadow,  

DLR